Home   Weather   Recife   Past weeks

Flag for Brazil Past Weather in Recife, Pernambuco, Brazil — Yesterday and Last 2 Weeks

Now
75 °F

Clear.


Feels Like: 75 °F
Forecast: 81 / 87 °F
Wind: 3 mph from Northeast

Location: Maceio Aeroporto

Current Time: Feb 23, 2017 at 2:01:58 am

Latest Report: Feb 23, 2017 at 1:00 am


Visibility: 10 mi

Pressure: 29.95 "Hg

Humidity: 83%

Dew Point: 70 °F

Location of RecifeLocation

Past Weather in Recife — Graph

°F

Recife Temperature Yesterday

Maximum temperature yesterday: 86 °F (at 11:00 am)
Minimum temperature yesterday: 75 °F (at 2:00 am)
Average temperature yesterday: 80 °F

High & Low Weather Summary for the Past Weeks

 TemperatureHumidityPressure
High90 °F (Feb 9, 12:00 pm)94% (Feb 8, 1:00 am)30.04 "Hg (Feb 8, 1:00 am)
Low70 °F (Feb 13, 4:00 am)43% (Feb 12, 12:00 pm)29.80 "Hg (Feb 8, 4:00 pm)
Average80 °F75%29.92 "Hg
* Reported Feb 8 12:00 am — Feb 23 12:00 am, Recife, Weather by CustomWeather, © 2017

Note: Actual official high and low records may vary slightly from our data, if they occured in-between our weather recording intervals... More about our weather records

Advertising

Recife Weather History for the Previous 24 Hours

Scroll right to see more
 ConditionsComfort  
Time TempWeatherWind HumidityBarometerVisibility
12:00 am
Thu, Feb 23
75 °FPassing clouds.5 mph83%29.95 "HgN/A
11:00 pm
Wed, Feb 22
77 °FPassing clouds.6 mph79%29.98 "HgN/A
10:00 pm77 °FPassing clouds.6 mph79%29.98 "HgN/A
9:00 pm79 °FPassing clouds.9 mph79%29.98 "HgN/A
8:00 pm79 °FClear.7 mph79%29.95 "Hg10 mi
7:00 pm81 °FPassing clouds.6 mph74%29.95 "HgN/A
6:00 pm81 °FPassing clouds.12 mph74%29.92 "HgN/A
5:00 pm82 °FScattered clouds.13 mph66%29.92 "HgN/A
4:00 pm84 °FScattered clouds.15 mph58%29.89 "HgN/A
3:00 pm84 °FScattered clouds.16 mph62%29.89 "HgN/A
2:00 pm86 °FScattered clouds.13 mph55%29.89 "HgN/A
1:00 pm86 °FScattered clouds.18 mph52%29.92 "HgN/A
12:00 pm86 °FScattered clouds.21 mph55%29.95 "HgN/A
11:00 am86 °FScattered clouds.16 mph59%29.95 "HgN/A
10:00 am84 °FBroken clouds.17 mph66%29.95 "HgN/A
9:00 am82 °FBroken clouds.17 mph70%29.95 "HgN/A
8:00 am77 °FScattered showers. Broken clouds.13 mph89%29.95 "Hg5 mi
7:00 am77 °FScattered showers. Broken clouds.10 mph89%29.95 "Hg5 mi
6:00 am77 °FPartly sunny.8 mph89%29.92 "HgN/A
4:00 am75 °FPassing clouds.No wind94%29.92 "HgN/A
3:00 am75 °FPassing clouds.5 mph94%29.92 "HgN/A
2:00 am75 °FPassing clouds.No wind94%29.92 "HgN/A
Weather by CustomWeather, © 2017

See weather overviewHow to use our weather pages